Staunton, VA

3:27 AM EDT on October 17, 2017 (GMT -0400)
Shenandoah Valley Regional

Weather History for KSHD - December, 2012

Change the Weather History Date:

Friday, December 14, 2012

  Actual Average Record
Temperature  
Mean Temperature 38 °F -  
Max Temperature 58 °F 46 °F 70 °F (2015)
Min Temperature 17 °F 27 °F 15 °F (2005)
Degree Days  
Heating Degree Days 28    
Moisture  
Dew Point 21 °F    
Average Humidity 64    
Maximum Humidity 88    
Minimum Humidity 22    
Precipitation  
Precipitation 0.00 in - - ()
Sea Level Pressure  
Sea Level Pressure 30.28 in    
Wind  
Wind Speed 1 mph (South)    
Max Wind Speed 7 mph    
Max Gust Speed -    
Visibility 9 miles    
Events      
Averages and records for this station are not official NWS values.
T = Trace of Precipitation, MM = Missing Value Source: NWS Daily Summary

Daily Weather History Graph

Daily Weather History Graph

Search for Another Location

Airport or City:

Trip Planner

Search our weather history database for the weather conditions in past years. The results will help you decide how hot, cold, wet, or windy it might be!

Date:

Astronomy

Dec. 14, 2012 Rise Set
Actual Time 7:24 AM EST 4:56 PM EST
Civil Twilight 6:55 AM EST 5:25 PM EST
Nautical Twilight 6:22 AM EST 5:59 PM EST
Astronomical Twilight 5:49 AM EST 6:31 PM EST
Moon 8:28 AM EST (12/14) 6:45 PM EST (12/14)
Length of Visible Light 10h 30m
Length of Day
9h 31m
Waxing Crescent, 3% of the Moon is Illuminated
Dec 14
Waxing Crescent
Dec 20
First Quarter
Dec 28
Full
Jan 4
Last Quarter
Jan 11
New

Hourly Weather History & Observations

Time (EST) Temp. Windchill Dew Point Humidity Pressure Visibility Wind Dir Wind Speed Gust Speed Precip Events Conditions
12:15 AM 23.5 °F - 19.6 °F 85% 30.34 in 10.0 mi Calm Calm - N/A   Clear
12:35 AM 23.9 °F - 20.1 °F 85% 30.34 in 10.0 mi Calm Calm - N/A   Clear
1:15 AM 22.8 °F - 19.2 °F 86% 30.32 in 10.0 mi Calm Calm - N/A   Clear
1:35 AM 21.4 °F - 18.3 °F 88% 30.32 in 7.0 mi Calm Calm - N/A   Clear
1:55 AM 21.0 °F - 17.6 °F 87% 30.32 in 10.0 mi Calm Calm - N/A   Clear
2:15 AM 22.3 °F - 18.9 °F 87% 30.32 in 10.0 mi Calm Calm - N/A   Clear
2:35 AM 21.9 °F - 18.3 °F 86% 30.32 in 7.0 mi Calm Calm - N/A   Clear
2:55 AM 21.7 °F - 18.7 °F 88% 30.32 in 7.0 mi Calm Calm - N/A   Clear
3:15 AM 20.8 °F - 17.4 °F 87% 30.31 in 7.0 mi Calm Calm - N/A   Clear
3:35 AM 19.4 °F - 16.0 °F 87% 30.31 in 7.0 mi Calm Calm - N/A   Clear
3:55 AM 19.0 °F - 15.3 °F 85% 30.31 in 10.0 mi Calm Calm - N/A   Clear
4:15 AM 20.7 °F - 17.6 °F 88% 30.31 in 10.0 mi Calm Calm - N/A   Clear
4:35 AM 20.1 °F - 15.8 °F 83% 30.31 in 10.0 mi Calm Calm - N/A   Clear
4:55 AM 20.1 °F - 15.8 °F 83% 30.31 in 10.0 mi Calm Calm - N/A   Clear
5:15 AM 20.3 °F - 16.7 °F 86% 30.31 in 10.0 mi Calm Calm - N/A   Clear
5:35 AM 20.1 °F - 16.7 °F 87% 30.31 in 7.0 mi Calm Calm - N/A   Clear
5:55 AM 18.7 °F - 15.4 °F 87% 30.31 in 7.0 mi Calm Calm - N/A   Clear
6:15 AM 19.2 °F - 15.8 °F 87% 30.32 in 7.0 mi Calm Calm - N/A   Clear
6:35 AM 20.5 °F - 16.0 °F 83% 30.32 in 10.0 mi Calm Calm - N/A   Clear
6:55 AM 17.1 °F - 12.9 °F 84% 30.34 in 10.0 mi Calm Calm - N/A   Clear
7:15 AM 18.7 °F - 15.3 °F 87% 30.34 in 7.0 mi Calm Calm - N/A   Clear
7:35 AM 18.0 °F - 14.4 °F 86% 30.34 in 7.0 mi Calm Calm - N/A   Clear
7:55 AM 19.0 °F - 15.6 °F 87% 30.33 in 7.0 mi Calm Calm - N/A   Clear
8:15 AM 21.2 °F - 18.0 °F 87% 30.32 in 7.0 mi Calm Calm - N/A   Clear
8:35 AM 24.6 °F - 20.3 °F 84% 30.32 in 7.0 mi Calm Calm - N/A   Clear
8:55 AM 26.8 °F - 22.5 °F 84% 30.33 in 7.0 mi Calm Calm - N/A   Clear
9:15 AM 29.8 °F - 24.4 °F 80% 30.32 in 10.0 mi Calm Calm - N/A   Clear
9:35 AM 32.0 °F - 25.3 °F 76% 30.32 in 10.0 mi Calm Calm - N/A   Clear
9:55 AM 33.1 °F - 27.5 °F 80% 30.33 in 10.0 mi Calm Calm - N/A   Clear
10:15 AM 35.6 °F - 26.8 °F 70% 30.32 in 10.0 mi Calm Calm - N/A   Clear
10:35 AM 39.0 °F - 25.9 °F 59% 30.32 in 10.0 mi Calm Calm - N/A   Clear
10:55 AM 42.4 °F - 25.3 °F 51% 30.32 in 10.0 mi Calm Calm - N/A   Clear
11:15 AM 45.3 °F 44.0 °F 24.8 °F 45% 30.31 in 10.0 mi SSE 3.5 mph - N/A   Clear
11:35 AM 46.9 °F - 27.0 °F 46% 30.30 in 10.0 mi Calm Calm - N/A   Clear
11:55 AM 49.5 °F - 28.6 °F 45% 30.29 in 10.0 mi SW 5.8 mph - N/A   Clear
12:15 PM 51.8 °F - 28.8 °F 41% 30.28 in 10.0 mi South 3.5 mph - N/A   Clear
12:35 PM 53.1 °F - 26.8 °F 36% 30.28 in 10.0 mi Calm Calm - N/A   Clear
12:55 PM 55.4 °F - 24.3 °F 30% 30.26 in 10.0 mi Calm Calm - N/A   Clear
1:15 PM 56.8 °F - 23.4 °F 27% 30.25 in 10.0 mi SSE 5.8 mph - N/A   Clear
1:35 PM 56.5 °F - 19.9 °F 24% 30.25 in 10.0 mi Calm Calm - N/A   Clear
1:55 PM 57.2 °F - 19.6 °F 23% 30.24 in 10.0 mi South 3.5 mph - N/A   Clear
2:15 PM 57.6 °F - 19.6 °F 23% 30.24 in 10.0 mi Calm Calm - N/A   Clear
2:35 PM 58.1 °F - 19.2 °F 22% 30.23 in 10.0 mi SSE 6.9 mph - N/A   Clear
2:55 PM 58.3 °F - 19.0 °F 22% 30.23 in 10.0 mi South 5.8 mph - N/A   Clear
3:15 PM 58.1 °F - 19.2 °F 22% 30.23 in 10.0 mi South 5.8 mph - N/A   Clear
3:35 PM 57.6 °F - 19.4 °F 23% 30.22 in 10.0 mi South 5.8 mph - N/A   Clear
3:55 PM 56.8 °F - 19.2 °F 23% 30.22 in 10.0 mi South 4.6 mph - N/A   Clear
4:15 PM 55.8 °F - 17.6 °F 22% 30.22 in 10.0 mi South 5.8 mph - N/A   Clear
4:35 PM 54.7 °F - 18.1 °F 24% 30.23 in 10.0 mi SSW 3.5 mph - N/A   Clear
4:55 PM 53.2 °F - 18.3 °F 25% 30.22 in 10.0 mi SSE 3.5 mph - N/A   Clear
5:15 PM 49.6 °F - 19.4 °F 30% 30.22 in 10.0 mi Calm Calm - N/A   Clear
5:35 PM 44.2 °F - 22.5 °F 42% 30.23 in 10.0 mi Calm Calm - N/A   Clear
5:55 PM 39.0 °F - 22.8 °F 52% 30.24 in 10.0 mi Calm Calm - N/A   Clear
6:15 PM 41.5 °F - 22.8 °F 47% 30.24 in 10.0 mi Calm Calm - N/A   Clear
6:35 PM 37.9 °F - 23.9 °F 57% 30.23 in 10.0 mi Calm Calm - N/A   Clear
6:55 PM 33.3 °F - 23.4 °F 67% 30.23 in 10.0 mi Calm Calm - N/A   Clear
7:15 PM 33.3 °F - 23.5 °F 68% 30.24 in 10.0 mi Calm Calm - N/A   Clear
7:35 PM 34.5 °F - 23.9 °F 65% 30.24 in 10.0 mi Calm Calm - N/A   Clear
7:55 PM 33.1 °F - 23.9 °F 69% 30.24 in 10.0 mi Calm Calm - N/A   Clear
8:15 PM 31.8 °F - 23.5 °F 71% 30.25 in 10.0 mi Calm Calm - N/A   Clear
8:35 PM 32.4 °F - 23.5 °F 70% 30.25 in 10.0 mi Calm Calm - N/A   Clear
8:55 PM 32.2 °F - 23.2 °F 69% 30.25 in 10.0 mi Calm Calm - N/A   Clear
9:15 PM 30.0 °F - 22.6 °F 74% 30.25 in 10.0 mi Calm Calm - N/A   Clear
9:35 PM 30.9 °F - 23.4 °F 74% 30.26 in 10.0 mi Calm Calm - N/A   Clear
9:55 PM 30.0 °F - 23.0 °F 75% 30.26 in 10.0 mi Calm Calm - N/A   Clear
10:15 PM 31.5 °F - 23.7 °F 73% 30.26 in 10.0 mi Calm Calm - N/A   Clear
10:35 PM 30.4 °F - 23.4 °F 75% 30.26 in 10.0 mi Calm Calm - N/A   Clear
10:55 PM 31.8 °F - 23.9 °F 73% 30.26 in 10.0 mi Calm Calm - N/A   Clear
11:15 PM 30.2 °F - 23.0 °F 75% 30.25 in 10.0 mi Calm Calm - N/A   Clear
11:35 PM 30.0 °F - 23.4 °F 76% 30.25 in 10.0 mi Calm Calm - N/A   Clear
11:55 PM 30.2 °F - 23.5 °F 76% 30.25 in 10.0 mi Calm Calm - N/A   Clear